Selinsgrove, PA

7:37 AM EDT on July 28, 2017 (GMT -0400)
Penn Valley

Weather History for KSEG - March, 2014

Change the Weather History Date:

Saturday, March 8, 2014

  Actual Average (KIPT) Record (KIPT)
Temperature  
Mean Temperature 36 °F -  
Max Temperature 52 °F 41 °F 81 °F (2000)
Min Temperature 19 °F 23 °F 8 °F (1989)
Degree Days  
Heating Degree Days 30    
Moisture  
Dew Point 27 °F    
Average Humidity 71    
Maximum Humidity 92    
Minimum Humidity 43    
Precipitation  
Precipitation 0.00 in - - ()
Sea Level Pressure  
Sea Level Pressure 29.94 in    
Wind  
Wind Speed 3 mph (WNW)    
Max Wind Speed 13 mph    
Max Gust Speed 18 mph    
Visibility 6 miles    
Events Rain    
Averages and records for this station are not official NWS values.
T = Trace of Precipitation, MM = Missing Value Source: NWS Daily Summary

Daily Weather History Graph

Daily Weather History Graph

Search for Another Location

Airport or City:

Trip Planner

Search our weather history database for the weather conditions in past years. The results will help you decide how hot, cold, wet, or windy it might be!

Date:

Astronomy

Mar. 08, 2014 Rise Set
Actual Time 6:30 AM EST 6:06 PM EST
Civil Twilight 6:03 AM EST 6:33 PM EST
Nautical Twilight 5:31 AM EST 7:05 PM EST
Astronomical Twilight 4:59 AM EST 7:37 PM EST
Moon 11:07 AM EST (3/8) 1:05 AM EST (3/8)
Length of Visible Light 12h 30m
Length of Day
11h 36m
First Quarter, 51% of the Moon is Illuminated
Mar 8
First Quarter
Mar 16
Full
Mar 23
Last Quarter
Mar 30
New
Apr 7
First Quarter

Hourly Weather History & Observations

Time (EST) Temp. Windchill Dew Point Humidity Pressure Visibility Wind Dir Wind Speed Gust Speed Precip Events Conditions
12:53 AM 21.0 °F - 19.0 °F 92% 29.97 in 7.0 mi Calm Calm - N/A   Clear
1:53 AM 21.9 °F - 19.0 °F 89% 29.96 in 6.0 mi Calm Calm - N/A   Clear
2:53 AM 21.0 °F - 18.0 °F 88% 29.95 in 5.0 mi Calm Calm - N/A   Clear
3:53 AM 21.0 °F - 18.0 °F 88% 29.94 in 5.0 mi Calm Calm - N/A   Clear
4:53 AM 19.9 °F - 16.0 °F 85% 29.94 in 5.0 mi Calm Calm - N/A   Clear
5:53 AM 19.9 °F - 17.1 °F 89% 29.95 in 5.0 mi Calm Calm - N/A   Clear
6:53 AM 19.9 °F - 17.1 °F 89% 29.95 in 4.0 mi Calm Calm - N/A   Clear
7:53 AM 24.1 °F - 21.9 °F 91% 29.96 in 3.0 mi Calm Calm - N/A   Clear
8:53 AM 30.0 °F - 26.1 °F 85% 29.96 in 4.0 mi Calm Calm - N/A   Clear
9:53 AM 35.1 °F 32.2 °F 26.1 °F 70% 29.94 in 6.0 mi South 3.5 mph - N/A   Haze
10:53 AM 37.0 °F - 28.0 °F 70% 29.94 in 7.0 mi Calm Calm - N/A   Overcast
11:53 AM 43.0 °F - 28.9 °F 58% 29.93 in 7.0 mi Calm Calm - N/A   Overcast
12:53 PM 45.0 °F 42.6 °F 30.0 °F 56% 29.90 in 7.0 mi SSE 4.6 mph - N/A   Mostly Cloudy
1:53 PM 48.0 °F - 30.9 °F 52% 29.88 in 8.0 mi SSE 5.8 mph - N/A   Scattered Clouds
2:53 PM 52.0 °F - 30.0 °F 43% 29.86 in 10.0 mi WNW 12.7 mph 18.4 mph N/A   Clear
3:53 PM 52.0 °F - 30.9 °F 45% 29.88 in 9.0 mi WNW 11.5 mph - N/A   Partly Cloudy
4:53 PM 48.9 °F - 33.1 °F 54% 29.89 in 7.0 mi NW 10.4 mph - N/A   Overcast
5:53 PM 45.0 °F 39.3 °F 32.0 °F 60% 29.91 in 7.0 mi NNW 11.5 mph - N/A   Overcast
6:53 PM 45.0 °F 40.6 °F 33.1 °F 63% 29.94 in 7.0 mi NW 8.1 mph - N/A   Overcast
7:53 PM 44.1 °F 39.0 °F 33.1 °F 65% 29.96 in 7.0 mi NW 9.2 mph - N/A   Overcast
8:53 PM 42.1 °F 36.1 °F 30.9 °F 65% 29.96 in 8.0 mi NW 10.4 mph - N/A   Overcast
9:53 PM 41.0 °F 36.4 °F 30.9 °F 67% 29.97 in 7.0 mi WNW 6.9 mph - N/A   Overcast
10:53 PM 39.9 °F 35.1 °F 30.9 °F 70% 29.97 in 7.0 mi NW 6.9 mph - N/A   Overcast
11:09 PM 39.0 °F 34.8 °F 30.9 °F 73% 29.95 in 7.0 mi NW 5.8 mph - 0.00 in Rain Light Rain
11:29 PM 39.0 °F 34.0 °F 30.9 °F 73% 29.95 in 7.0 mi NW 6.9 mph - 0.00 in   Overcast
11:53 PM 39.0 °F 34.8 °F 30.9 °F 73% 29.96 in 7.0 mi NW 5.8 mph - 0.00 in   Overcast